Tracking 34706 objects as of 10-Jul-2026
HD Live streaming from Space Station
objects crossing your sky now

PROX-1 (NANOSAT-7)

Track PROX-1 (NANOSAT-7) now!
10-day predictions
PROX-1 (NANOSAT-7) is classified as:


NORAD ID: 44339
Int'l Code: 2019-036A
Perigee: 597.6 km
Apogee: 605.3 km
Inclination: 24.0 °
Period: 96.6 minutes
Semi major axis: 6972 km
RCS: Unknown
Launch date: June 25, 2019
Source: United States (US)
Launch site: AIR FORCE EASTERN TEST RANGE (AFETR)

Uplink (MHz): 437.345
Downlink (MHz): 2300.000
Beacon (MHz):
Mode:
Call sign:
Status: Unknown


Uplink (MHz): 437.345
Downlink (MHz): 2300.000
Beacon (MHz):
Mode:
Call sign:
Status: Unknown

Your satellite tracking list
Your tracking list is empty




NASA's NSSDC Master Catalog

Two Line Element Set (TLE):
1 44339U 19036A   26190.67945983  .00008932  00000-0  84947-3 0  9998
2 44339  23.9963 323.9427 0005528 303.8092  56.1881 14.91170907376837
Source of the keplerian elements: AMSAT